Weather History for Laramie, WY

Change the Weather History Date:

Tuesday, December 11, 2012

  Actual Average Record
Temperature  
Mean Temperature 18 °F 21 °F  
Max Temperature 31 °F 32 °F 56 °F (1950)
Min Temperature 5 °F 10 °F -24 °F (1985)
Degree Days  
Heating Degree Days 47 44  
Month to date heating degree days 398 476  
Since 1 July heating degree days 2265 2788  
Cooling Degree Days 0 0  
Month to date cooling degree days 0 0  
Year to date cooling degree days 211 67  
Moisture  
Dew Point 10 °F    
Average Humidity 70    
Maximum Humidity 92    
Minimum Humidity 47    
Precipitation  
Precipitation 0.00 in 0.01 in 0.11 in (1965)
Month to date precipitation T 0.13  
Year to date precipitation 6.06 10.73  
Sea Level Pressure  
Sea Level Pressure 29.93 in    
Wind  
Wind Speed 14 mph (WSW)    
Max Wind Speed 33 mph    
Max Gust Speed 40 mph    
Visibility 10 miles    
Events      
T = Trace of Precipitation, MM = Missing Value Source: NWS Daily Summary

Daily Weather History Graph

Daily Weather History Graph

Search for Another Location

Airport:

Trip Planner

Search our weather history database for the weather conditions in past years. The results will help you decide how hot, cold, wet, or windy it might be!

Date:

Astronomy

Dec. 11, 2012 Rise Set
Actual Time 7:18 AM MST 4:33 PM MST
Civil Twilight 6:47 AM MST 5:04 PM MST
Nautical Twilight 6:12 AM MST 5:39 PM MST
Astronomical Twilight 5:39 AM MST 6:13 PM MST
Moon 5:16 AM MST (12/11) 3:15 PM MST (12/11)
Length of Visible Light 10h 17m
Length of Day
9h 14m
Waning Crescent, 4% of the Moon is Illuminated
Dec 11
Waning Crescent
Dec 13
New
Dec 19
First Quarter
Dec 28
Full
Jan 4
Last Quarter

Hourly Weather History & Observations

Time (MST) Temp. Windchill Dew Point Humidity Pressure Visibility Wind Dir Wind Speed Gust Speed Precip Events Conditions
12:53 AM 12.9 °F 3.8 °F 7.0 °F 77% 29.99 in 10.0 mi West 5.8 mph - N/A   Overcast
1:53 AM 10.9 °F 2.9 °F 8.1 °F 88% 30.02 in 10.0 mi West 4.6 mph - N/A   Mostly Cloudy
2:53 AM 7.0 °F -3.3 °F 3.9 °F 87% 30.03 in 10.0 mi WSW 5.8 mph - N/A   Partly Cloudy
3:53 AM 8.1 °F - 5.0 °F 87% 30.00 in 10.0 mi Calm Calm - N/A   Overcast
4:53 AM 10.9 °F 1.4 °F 3.9 °F 73% 29.99 in 10.0 mi WSW 5.8 mph - N/A   Mostly Cloudy
5:53 AM 8.1 °F -2.0 °F 3.9 °F 83% 30.01 in 10.0 mi West 5.8 mph - N/A   Mostly Cloudy
6:53 AM 9.0 °F -5.1 °F 3.9 °F 80% 30.02 in 10.0 mi WSW 10.4 mph - N/A   Mostly Cloudy
7:53 AM 10.9 °F 0.2 °F 6.1 °F 81% 30.02 in 10.0 mi WSW 6.9 mph - N/A   Clear
8:53 AM 19.0 °F 4.5 °F 10.9 °F 71% 29.97 in 10.0 mi SW 16.1 mph - N/A   Clear
9:53 AM 24.1 °F 12.5 °F 12.9 °F 62% 29.96 in 10.0 mi SW 12.7 mph - N/A   Clear
10:53 AM 27.0 °F 13.2 °F 12.0 °F 53% 29.94 in 10.0 mi WSW 20.7 mph 26.5 mph N/A   Clear
11:53 AM 28.0 °F 11.8 °F 12.9 °F 53% 29.88 in 10.0 mi West 32.2 mph 38.0 mph N/A   Clear
12:53 PM 30.0 °F 16.0 °F 14.0 °F 51% 29.87 in 10.0 mi West 25.3 mph 36.8 mph N/A   Clear
1:53 PM 30.9 °F 18.1 °F 12.9 °F 47% 29.87 in 10.0 mi WSW 21.9 mph - N/A   Clear
2:53 PM 28.0 °F 13.3 °F 12.9 °F 53% 29.89 in 10.0 mi WSW 25.3 mph 35.7 mph N/A   Clear
3:53 PM 26.1 °F 12.7 °F 12.9 °F 58% 29.90 in 10.0 mi WSW 18.4 mph - N/A   Clear
4:53 PM 25.0 °F 11.7 °F 12.0 °F 58% 29.91 in 10.0 mi SW 17.3 mph 20.7 mph N/A   Mostly Cloudy
5:53 PM 24.1 °F 14.4 °F 10.9 °F 57% 29.94 in 10.0 mi SSW 9.2 mph - N/A   Scattered Clouds
6:53 PM 25.0 °F 12.6 °F 12.9 °F 60% 29.90 in 10.0 mi WSW 15.0 mph 24.2 mph N/A   Scattered Clouds
7:53 PM 26.1 °F 11.0 °F 14.0 °F 60% 29.87 in 10.0 mi WSW 24.2 mph 35.7 mph N/A   Clear
8:53 PM 24.1 °F 9.8 °F 12.9 °F 62% 29.84 in 10.0 mi SW 19.6 mph - N/A   Clear
9:53 PM 23.0 °F 10.1 °F 12.9 °F 65% 29.82 in 10.0 mi South 15.0 mph 24.2 mph N/A   Clear
10:53 PM 25.0 °F 12.6 °F 12.9 °F 60% 29.81 in 10.0 mi WSW 15.0 mph - N/A   Clear
11:53 PM 24.1 °F 13.7 °F 12.9 °F 62% 29.82 in 10.0 mi SW 10.4 mph - N/A   Partly Cloudy